17-04-2022, 00:00:04,    174,    0.1,    9.4,   0.00,   0.00, 1023.2,   62.5, -999.0
17-04-2022, 00:00:13,    174,    0.2,    9.4,   0.00,   0.00, 1023.2,   62.5, -999.0
17-04-2022, 00:00:24,    173,    0.0,    9.3,   0.00,   0.00, 1023.2,   62.4, -999.0
17-04-2022, 00:00:34,    173,    0.0,    9.2,   0.00,   0.00, 1023.2,   62.7, -999.0
17-04-2022, 00:00:43,    173,    0.0,    9.2,   0.00,   0.00, 1023.1,   62.7, -999.0
17-04-2022, 00:00:54,    173,    0.0,    9.3,   0.00,   0.00, 1023.1,   62.8, -999.0
17-04-2022, 00:01:04,    173,    0.0,    9.2,   0.00,   0.00, 1023.1,   62.8, -999.0
17-04-2022, 00:01:13,    153,    0.5,    9.3,   0.00,   0.00, 1023.2,   62.9, -999.0
17-04-2022, 00:01:23,    144,    1.1,    9.3,   0.00,   0.00, 1023.3,   63.3, -999.0
17-04-2022, 00:01:34,    143,    0.4,    9.3,   0.00,   0.00, 1023.3,   63.2, -999.0
17-04-2022, 00:01:43,    143,    0.0,    9.2,   0.00,   0.00, 1023.1,   63.0, -999.0
17-04-2022, 00:01:53,    144,    0.0,    9.3,   0.00,   0.00, 1023.1,   63.0, -999.0
17-04-2022, 00:02:03,    144,    0.0,    9.3,   0.00,   0.00, 1023.2,   63.2, -999.0
17-04-2022, 00:02:13,    145,    0.2,    9.4,   0.00,   0.00, 1023.2,   63.5, -999.0
17-04-2022, 00:02:23,    146,    0.0,    9.3,   0.00,   0.00, 1023.1,   62.9, -999.0
17-04-2022, 00:02:33,    145,    0.0,    9.2,   0.00,   0.00, 1023.1,   62.9, -999.0
17-04-2022, 00:02:43,    146,    0.0,    9.2,   0.00,   0.00, 1023.1,   62.9, -999.0
17-04-2022, 00:02:53,    146,    0.0,    9.3,   0.00,   0.00, 1023.1,   63.0, -999.0
17-04-2022, 00:03:03,    145,    0.0,    9.4,   0.00,   0.00, 1023.1,   63.3, -999.0
17-04-2022, 00:03:13,    146,    0.0,    9.4,   0.00,   0.00, 1023.1,   63.2, -999.0
17-04-2022, 00:03:23,    145,    0.0,    9.3,   0.00,   0.00, 1023.2,   63.2, -999.0
17-04-2022, 00:03:33,    145,    0.0,    9.3,   0.00,   0.00, 1023.1,   63.1, -999.0
17-04-2022, 00:03:43,    145,    0.0,    9.4,   0.00,   0.00, 1023.1,   63.2, -999.0
17-04-2022, 00:03:52,    145,    0.0,    9.3,   0.00,   0.00, 1023.1,   63.1, -999.0
17-04-2022, 00:04:03,    146,    0.0,    9.4,   0.00,   0.00, 1023.1,   63.2, -999.0
17-04-2022, 00:04:12,    145,    0.0,    9.4,   0.00,   0.00, 1023.1,   63.1, -999.0
17-04-2022, 00:04:22,    145,    0.0,    9.4,   0.00,   0.00, 1023.1,   63.2, -999.0
17-04-2022, 00:04:32,    145,    0.0,    9.4,   0.00,   0.00, 1023.1,   63.1, -999.0
17-04-2022, 00:04:42,    145,    0.0,    9.4,   0.00,   0.00, 1023.1,   63.0, -999.0
17-04-2022, 00:04:52,    145,    0.0,    9.4,   0.00,   0.00, 1023.1,   63.0, -999.0
17-04-2022, 00:05:02,    151,    0.2,    9.4,   0.00,   0.00, 1023.2,   63.2, -999.0
17-04-2022, 00:05:12,    150,    0.3,    9.4,   0.00,   0.00, 1023.2,   63.3, -999.0
17-04-2022, 00:05:22,    150,    0.0,    9.3,   0.00,   0.00, 1023.1,   63.1, -999.0
17-04-2022, 00:05:32,    150,    0.0,    9.2,   0.00,   0.00, 1023.1,   63.1, -999.0
17-04-2022, 00:05:42,    154,    0.0,    9.2,   0.00,   0.00, 1023.1,   63.3, -999.0
17-04-2022, 00:05:52,    158,    0.3,    9.3,   0.00,   0.00, 1023.2,   63.5, -999.0
17-04-2022, 00:06:02,    158,    0.0,    9.2,   0.00,   0.00, 1023.2,   63.6, -999.0
17-04-2022, 00:06:12,    158,    0.0,    9.2,   0.00,   0.00, 1023.1,   63.3, -999.0
17-04-2022, 00:06:22,    158,    0.0,    9.2,   0.00,   0.00, 1023.1,   63.4, -999.0
17-04-2022, 00:06:32,    158,    0.0,    9.2,   0.00,   0.00, 1023.1,   63.3, -999.0
17-04-2022, 00:06:42,    158,    0.0,    9.2,   0.00,   0.00, 1023.1,   63.6, -999.0
17-04-2022, 00:06:51,    158,    0.0,    9.2,   0.00,   0.00, 1023.1,   63.6, -999.0
17-04-2022, 00:07:01,    158,    0.0,    9.3,   0.00,   0.00, 1023.1,   63.7, -999.0
17-04-2022, 00:07:12,    158,    0.0,    9.3,   0.00,   0.00, 1023.1,   63.7, -999.0
17-04-2022, 00:07:21,    158,    0.0,    9.3,   0.00,   0.00, 1023.0,   63.5, -999.0
17-04-2022, 00:07:31,    158,    0.0,    9.3,   0.00,   0.00, 1023.0,   63.6, -999.0
17-04-2022, 00:07:42,    160,    0.0,    9.3,   0.00,   0.00, 1023.0,   63.6, -999.0
17-04-2022, 00:07:51,    160,    0.0,    9.2,   0.00,   0.00, 1023.0,   63.6, -999.0
17-04-2022, 00:08:01,    160,    0.0,    9.3,   0.00,   0.00, 1023.0,   63.5, -999.0
17-04-2022, 00:08:11,    160,    0.0,    9.3,   0.00,   0.00, 1023.0,   63.5, -999.0
17-04-2022, 00:08:21,    160,    0.0,    9.3,   0.00,   0.00, 1023.0,   63.5, -999.0
17-04-2022, 00:08:31,    159,    0.0,    9.2,   0.00,   0.00, 1023.0,   63.5, -999.0
17-04-2022, 00:08:41,    160,    0.0,    9.2,   0.00,   0.00, 1023.0,   63.5, -999.0
17-04-2022, 00:08:51,    159,    0.0,    9.2,   0.00,   0.00, 1023.0,   63.5, -999.0
17-04-2022, 00:09:01,    159,    0.0,    9.2,   0.00,   0.00, 1023.0,   63.7, -999.0
17-04-2022, 00:09:11,    159,    0.0,    9.3,   0.00,   0.00, 1023.0,   63.9, -999.0
17-04-2022, 00:09:21,    159,    0.0,    9.2,   0.00,   0.00, 1023.0,   63.7, -999.0
17-04-2022, 00:09:31,    159,    0.0,    9.2,   0.00,   0.00, 1023.0,   63.6, -999.0
17-04-2022, 00:09:41,    159,    0.0,    9.2,   0.00,   0.00, 1023.0,   63.8, -999.0
17-04-2022, 00:09:51,    159,    0.0,    9.2,   0.00,   0.00, 1023.0,   63.8, -999.0
17-04-2022, 00:10:00,    159,    0.0,    9.2,   0.00,   0.00, 1023.0,   63.7, -999.0
17-04-2022, 00:10:11,    159,    0.0,    9.3,   0.00,   0.00, 1023.0,   63.8, -999.0
17-04-2022, 00:10:21,    158,    0.0,    9.3,   0.00,   0.00, 1023.0,   64.1, -999.0
17-04-2022, 00:10:30,    159,    0.0,    9.4,   0.00,   0.00, 1023.0,   64.0, -999.0
17-04-2022, 00:10:40,    158,    0.0,    9.4,   0.00,   0.00, 1023.0,   63.8, -999.0
17-04-2022, 00:10:51,    158,    0.0,    9.4,   0.00,   0.00, 1023.0,   63.7, -999.0
17-04-2022, 00:11:00,    158,    0.0,    9.3,   0.00,   0.00, 1023.0,   63.8, -999.0
17-04-2022, 00:11:11,    159,    0.0,    9.3,   0.00,   0.00, 1023.0,   63.6, -999.0
17-04-2022, 00:11:20,    158,    0.0,    9.3,   0.00,   0.00, 1023.0,   63.7, -999.0
17-04-2022, 00:11:30,    157,    0.0,    9.4,   0.00,   0.00, 1023.0,   63.8, -999.0
17-04-2022, 00:11:40,    158,    0.0,    9.3,   0.00,   0.00, 1023.0,   63.7, -999.0
17-04-2022, 00:11:50,    158,    0.0,    9.3,   0.00,   0.00, 1023.0,   63.6, -999.0
17-04-2022, 00:12:00,    158,    0.0,    9.3,   0.00,   0.00, 1023.0,   63.6, -999.0
17-04-2022, 00:12:10,    158,    0.0,    9.3,   0.00,   0.00, 1023.0,   63.6, -999.0
17-04-2022, 00:12:20,    109,    0.6,    9.3,   0.00,   0.00, 1023.1,   64.0, -999.0
17-04-2022, 00:12:30,    114,    0.4,    9.4,   0.00,   0.00, 1023.1,   64.3, -999.0
17-04-2022, 00:12:40,    113,    0.1,    9.4,   0.00,   0.00, 1023.1,   63.9, -999.0
17-04-2022, 00:12:50,    112,    0.0,    9.3,   0.00,   0.00, 1023.0,   63.8, -999.0
17-04-2022, 00:13:00,    122,    0.3,    9.3,   0.00,   0.00, 1023.0,   64.0, -999.0
17-04-2022, 00:13:09,    123,    0.1,    9.3,   0.00,   0.00, 1023.1,   64.1, -999.0
17-04-2022, 00:13:20,    124,    0.1,    9.3,   0.00,   0.00, 1023.1,   63.9, -999.0
17-04-2022, 00:13:30,    129,    0.0,    9.4,   0.00,   0.00, 1023.0,   63.8, -999.0
17-04-2022, 00:13:39,    128,    0.0,    9.4,   0.00,   0.00, 1023.0,   63.8, -999.0
17-04-2022, 00:13:49,    129,    0.0,    9.3,   0.00,   0.00, 1023.0,   63.6, -999.0
17-04-2022, 00:13:59,    130,    0.0,    9.3,   0.00,   0.00, 1023.0,   63.6, -999.0
17-04-2022, 00:14:09,    130,    0.0,    9.3,   0.00,   0.00, 1023.0,   63.6, -999.0
17-04-2022, 00:14:19,    130,    0.0,    9.3,   0.00,   0.00, 1023.0,   63.7, -999.0
17-04-2022, 00:14:29,    129,    0.0,    9.2,   0.00,   0.00, 1023.0,   63.6, -999.0
17-04-2022, 00:14:39,    130,    0.0,    9.2,   0.00,   0.00, 1023.0,   63.6, -999.0
17-04-2022, 00:14:49,    130,    0.0,    9.2,   0.00,   0.00, 1023.0,   63.6, -999.0
17-04-2022, 00:14:59,    129,    0.0,    9.2,   0.00,   0.00, 1023.0,   63.6, -999.0
17-04-2022, 00:15:09,    129,    0.0,    9.2,   0.00,   0.00, 1023.0,   63.8, -999.0
17-04-2022, 00:15:19,    130,    0.0,    9.3,   0.00,   0.00, 1023.0,   63.9, -999.0
17-04-2022, 00:15:29,    130,    0.0,    9.3,   0.00,   0.00, 1023.0,   63.9, -999.0
17-04-2022, 00:15:39,    131,    0.0,    9.2,   0.00,   0.00, 1023.0,   63.9, -999.0
17-04-2022, 00:15:49,    130,    0.0,    9.2,   0.00,   0.00, 1023.0,   63.9, -999.0
17-04-2022, 00:15:59,    110,    1.0,    9.3,   0.00,   0.00, 1023.1,   64.7, -999.0
17-04-2022, 00:16:09,    110,    0.7,    9.4,   0.00,   0.00, 1023.1,   64.5, -999.0
17-04-2022, 00:16:18,    111,    0.1,    9.4,   0.00,   0.00, 1023.0,   64.3, -999.0
17-04-2022, 00:16:29,    111,    0.0,    9.3,   0.00,   0.00, 1022.9,   64.1, -999.0
17-04-2022, 00:16:39,    112,    0.0,    9.4,   0.00,   0.00, 1022.9,   64.1, -999.0
17-04-2022, 00:16:48,    114,    0.0,    9.5,   0.00,   0.00, 1022.9,   64.1, -999.0
17-04-2022, 00:16:59,    114,    0.0,    9.4,   0.00,   0.00, 1022.9,   63.9, -999.0
17-04-2022, 00:17:08,    114,    0.2,    9.4,   0.00,   0.00, 1023.0,   64.0, -999.0
17-04-2022, 00:17:18,    129,    0.2,    9.4,   0.00,   0.00, 1023.0,   63.9, -999.0
17-04-2022, 00:17:28,    131,    0.0,    9.4,   0.00,   0.00, 1023.0,   63.7, -999.0
17-04-2022, 00:17:38,    131,    0.0,    9.3,   0.00,   0.00, 1022.9,   63.6, -999.0
17-04-2022, 00:17:48,    129,    0.0,    9.3,   0.00,   0.00, 1022.9,   63.7, -999.0
17-04-2022, 00:17:58,    129,    0.0,    9.3,   0.00,   0.00, 1022.9,   63.8, -999.0
17-04-2022, 00:18:08,    129,    0.0,    9.3,   0.00,   0.00, 1022.9,   64.0, -999.0
17-04-2022, 00:18:18,    128,    0.0,    9.4,   0.00,   0.00, 1022.9,   64.0, -999.0
17-04-2022, 00:18:28,    128,    0.0,    9.4,   0.00,   0.00, 1022.9,   64.1, -999.0
17-04-2022, 00:18:38,    126,    0.0,    9.4,   0.00,   0.00, 1022.9,   63.9, -999.0
17-04-2022, 00:18:48,    127,    0.0,    9.4,   0.00,   0.00, 1022.9,   63.8, -999.0
17-04-2022, 00:18:58,    127,    0.0,    9.5,   0.00,   0.00, 1022.9,   63.8, -999.0
17-04-2022, 00:19:08,    127,    0.0,    9.4,   0.00,   0.00, 1022.9,   63.8, -999.0
17-04-2022, 00:19:18,    127,    0.0,    9.4,   0.00,   0.00, 1022.9,   63.6, -999.0
17-04-2022, 00:19:28,    127,    0.0,    9.3,   0.00,   0.00, 1022.9,   63.7, -999.0
17-04-2022, 00:19:38,    128,    0.0,    9.2,   0.00,   0.00, 1022.9,   63.4, -999.0
17-04-2022, 00:19:47,    128,    0.0,    9.2,   0.00,   0.00, 1022.9,   63.3, -999.0
17-04-2022, 00:19:57,    127,    0.0,    9.2,   0.00,   0.00, 1022.9,   63.5, -999.0
17-04-2022, 00:20:08,    128,    0.0,    9.2,   0.00,   0.00, 1022.9,   63.7, -999.0
17-04-2022, 00:20:17,    127,    0.0,    9.1,   0.00,   0.00, 1022.9,   63.7, -999.0
17-04-2022, 00:20:27,    127,    0.0,    9.2,   0.00,   0.00, 1022.9,   63.8, -999.0
17-04-2022, 00:20:37,    127,    0.0,    9.2,   0.00,   0.00, 1022.9,   64.0, -999.0
17-04-2022, 00:20:47,    128,    0.0,    9.2,   0.00,   0.00, 1022.9,   64.1, -999.0
17-04-2022, 00:20:57,    127,    0.0,    9.2,   0.00,   0.00, 1022.9,   64.1, -999.0
17-04-2022, 00:21:07,    127,    0.0,    9.2,   0.00,   0.00, 1022.9,   64.2, -999.0
17-04-2022, 00:21:17,    127,    0.0,    9.2,   0.00,   0.00, 1022.9,   64.1, -999.0
17-04-2022, 00:21:27,    127,    0.0,    9.2,   0.00,   0.00, 1022.9,   64.1, -999.0
17-04-2022, 00:21:37,    127,    0.0,    9.2,   0.00,   0.00, 1022.9,   63.9, -999.0
17-04-2022, 00:21:47,    128,    0.0,    9.1,   0.00,   0.00, 1022.9,   64.0, -999.0
17-04-2022, 00:21:57,    127,    0.0,    9.2,   0.00,   0.00, 1022.9,   64.1, -999.0
17-04-2022, 00:22:07,    127,    0.0,    9.2,   0.00,   0.00, 1022.9,   64.2, -999.0
17-04-2022, 00:22:17,    128,    0.0,    9.0,   0.00,   0.00, 1022.8,   64.2, -999.0
17-04-2022, 00:22:26,    128,    0.0,    9.2,   0.00,   0.00, 1022.8,   64.2, -999.0
17-04-2022, 00:22:37,    127,    0.0,    9.1,   0.00,   0.00, 1022.8,   64.3, -999.0
17-04-2022, 00:22:47,    127,    0.0,    9.1,   0.00,   0.00, 1022.8,   64.4, -999.0
17-04-2022, 00:22:56,    127,    0.0,    9.1,   0.00,   0.00, 1022.8,   64.2, -999.0
17-04-2022, 00:23:06,    127,    0.0,    9.2,   0.00,   0.00, 1022.8,   64.3, -999.0
17-04-2022, 00:23:17,    127,    0.0,    9.2,   0.00,   0.00, 1022.8,   64.2, -999.0
17-04-2022, 00:23:26,    127,    0.0,    9.2,   0.00,   0.00, 1022.8,   64.3, -999.0
17-04-2022, 00:23:36,    131,    0.0,    9.2,   0.00,   0.00, 1022.8,   64.3, -999.0
17-04-2022, 00:23:47,    127,    0.0,    9.3,   0.00,   0.00, 1022.8,   64.4, -999.0
17-04-2022, 00:23:56,    127,    0.0,    9.3,   0.00,   0.00, 1022.8,   64.4, -999.0
17-04-2022, 00:24:06,    126,    0.0,    9.3,   0.00,   0.00, 1022.8,   64.5, -999.0
17-04-2022, 00:24:16,    129,    0.0,    9.3,   0.00,   0.00, 1022.8,   64.5, -999.0
17-04-2022, 00:24:26,    126,    0.0,    9.3,   0.00,   0.00, 1022.8,   64.3, -999.0
17-04-2022, 00:24:36,    126,    0.0,    9.4,   0.00,   0.00, 1022.8,   64.3, -999.0
17-04-2022, 00:24:46,    131,    0.0,    9.3,   0.00,   0.00, 1022.8,   64.3, -999.0
17-04-2022, 00:24:56,    130,    0.0,    9.3,   0.00,   0.00, 1022.8,   64.0, -999.0
17-04-2022, 00:25:06,    133,    0.0,    9.4,   0.00,   0.00, 1022.8,   64.0, -999.0
17-04-2022, 00:25:16,    132,    0.0,    9.3,   0.00,   0.00, 1022.8,   64.1, -999.0
17-04-2022, 00:25:26,    132,    0.0,    9.4,   0.00,   0.00, 1022.8,   64.1, -999.0
17-04-2022, 00:25:35,    132,    0.0,    9.4,   0.00,   0.00, 1022.8,   64.0, -999.0
17-04-2022, 00:25:46,    131,    0.0,    9.3,   0.00,   0.00, 1022.8,   64.0, -999.0
17-04-2022, 00:25:56,    133,    0.0,    9.3,   0.00,   0.00, 1022.7,   64.0, -999.0
17-04-2022, 00:26:05,    133,    0.0,    9.2,   0.00,   0.00, 1022.8,   63.9, -999.0
17-04-2022, 00:26:16,    133,    0.0,    9.2,   0.00,   0.00, 1022.7,   63.9, -999.0
17-04-2022, 00:26:26,    133,    0.0,    9.2,   0.00,   0.00, 1022.8,   64.0, -999.0
17-04-2022, 00:26:35,    133,    0.0,    9.1,   0.00,   0.00, 1022.8,   64.0, -999.0
17-04-2022, 00:26:45,    132,    0.0,    9.1,   0.00,   0.00, 1022.8,   64.2, -999.0
17-04-2022, 00:26:55,    133,    0.0,    9.2,   0.00,   0.00, 1022.8,   64.3, -999.0
17-04-2022, 00:27:05,    133,    0.0,    9.2,   0.00,   0.00, 1022.7,   64.5, -999.0
17-04-2022, 00:27:15,    133,    0.0,    9.2,   0.00,   0.00, 1022.8,   64.4, -999.0
17-04-2022, 00:27:25,    135,    0.0,    9.1,   0.00,   0.00, 1022.8,   64.3, -999.0
17-04-2022, 00:27:35,    132,    0.0,    9.1,   0.00,   0.00, 1022.8,   64.3, -999.0
17-04-2022, 00:27:45,    132,    0.0,    9.2,   0.00,   0.00, 1022.8,   64.2, -999.0
17-04-2022, 00:27:55,    132,    0.0,    9.2,   0.00,   0.00, 1022.8,   64.4, -999.0
17-04-2022, 00:28:05,    133,    0.0,    9.2,   0.00,   0.00, 1022.7,   64.5, -999.0
17-04-2022, 00:28:15,    133,    0.0,    9.2,   0.00,   0.00, 1022.7,   64.4, -999.0
17-04-2022, 00:28:25,    132,    0.0,    9.2,   0.00,   0.00, 1022.7,   64.4, -999.0
17-04-2022, 00:28:35,    132,    0.0,    9.2,   0.00,   0.00, 1022.8,   64.4, -999.0
17-04-2022, 00:28:45,    131,    0.0,    9.2,   0.00,   0.00, 1022.7,   64.6, -999.0
17-04-2022, 00:28:55,    131,    0.0,    9.3,   0.00,   0.00, 1022.7,   64.6, -999.0
17-04-2022, 00:29:05,    131,    0.0,    9.3,   0.00,   0.00, 1022.7,   64.6, -999.0
17-04-2022, 00:29:14,    131,    0.0,    9.3,   0.00,   0.00, 1022.7,   64.5, -999.0
17-04-2022, 00:29:25,    131,    0.0,    9.3,   0.00,   0.00, 1022.7,   64.3, -999.0
17-04-2022, 00:29:35,    140,    0.0,    9.2,   0.00,   0.00, 1022.7,   64.2, -999.0
17-04-2022, 00:29:44,    140,    0.0,    9.1,   0.00,   0.00, 1022.7,   64.1, -999.0
17-04-2022, 00:29:54,    139,    0.0,    9.1,   0.00,   0.00, 1022.7,   64.3, -999.0
17-04-2022, 00:30:04,    139,    0.0,    9.1,   0.00,   0.00, 1022.7,   64.3, -999.0
17-04-2022, 00:30:14,    140,    0.0,    9.2,   0.00,   0.00, 1022.7,   64.5, -999.0
17-04-2022, 00:30:24,    139,    0.0,    9.2,   0.00,   0.00, 1022.7,   64.4, -999.0
17-04-2022, 00:30:34,    139,    0.0,    9.1,   0.00,   0.00, 1022.7,   64.3, -999.0
17-04-2022, 00:30:44,    139,    0.0,    9.2,   0.00,   0.00, 1022.7,   64.4, -999.0
17-04-2022, 00:30:54,    137,    0.0,    9.2,   0.00,   0.00, 1022.7,   64.6, -999.0
17-04-2022, 00:31:04,    139,    0.0,    9.1,   0.00,   0.00, 1022.7,   64.6, -999.0
17-04-2022, 00:31:14,    139,    0.0,    9.0,   0.00,   0.00, 1022.7,   64.5, -999.0
17-04-2022, 00:31:24,    139,    0.0,    9.1,   0.00,   0.00, 1022.8,   64.5, -999.0
17-04-2022, 00:31:34,    139,    0.0,    9.1,   0.00,   0.00, 1022.7,   64.5, -999.0
17-04-2022, 00:31:44,    139,    0.0,    9.1,   0.00,   0.00, 1022.7,   64.7, -999.0
17-04-2022, 00:31:54,    139,    0.0,    9.2,   0.00,   0.00, 1022.7,   64.8, -999.0
17-04-2022, 00:32:04,    140,    0.0,    9.2,   0.00,   0.00, 1022.7,   64.9, -999.0
17-04-2022, 00:32:14,    139,    0.0,    9.2,   0.00,   0.00, 1022.7,   64.8, -999.0
17-04-2022, 00:32:23,    139,    0.0,    9.2,   0.00,   0.00, 1022.7,   64.6, -999.0
17-04-2022, 00:32:34,    139,    0.0,    9.1,   0.00,   0.00, 1022.7,   64.6, -999.0
17-04-2022, 00:32:43,    140,    0.0,    9.2,   0.00,   0.00, 1022.7,   64.7, -999.0
17-04-2022, 00:32:53,    138,    0.0,    9.2,   0.00,   0.00, 1022.7,   64.8, -999.0
17-04-2022, 00:33:03,    139,    0.0,    9.2,   0.00,   0.00, 1022.7,   64.7, -999.0
17-04-2022, 00:33:13,    139,    0.0,    9.2,   0.00,   0.00, 1022.7,   64.7, -999.0
17-04-2022, 00:33:23,    138,    0.0,    9.4,   0.00,   0.00, 1022.7,   64.6, -999.0
17-04-2022, 00:33:33,    139,    0.0,    9.2,   0.00,   0.00, 1022.7,   64.5, -999.0
17-04-2022, 00:33:43,    139,    0.0,    9.3,   0.00,   0.00, 1022.7,   64.5, -999.0
17-04-2022, 00:33:53,    138,    0.0,    9.3,   0.00,   0.00, 1022.8,   64.4, -999.0
17-04-2022, 00:34:03,    139,    0.0,    9.2,   0.00,   0.00, 1022.7,   64.4, -999.0
17-04-2022, 00:34:13,    138,    0.0,    9.2,   0.00,   0.00, 1022.7,   64.3, -999.0
17-04-2022, 00:34:23,    138,    0.0,    9.1,   0.00,   0.00, 1022.7,   64.4, -999.0
17-04-2022, 00:34:33,    138,    0.0,    9.2,   0.00,   0.00, 1022.7,   64.4, -999.0
17-04-2022, 00:34:43,    138,    0.0,    9.2,   0.00,   0.00, 1022.7,   64.4, -999.0
17-04-2022, 00:34:53,    139,    0.0,    9.2,   0.00,   0.00, 1022.7,   64.4, -999.0
17-04-2022, 00:35:03,    138,    0.0,    9.1,   0.00,   0.00, 1022.7,   64.4, -999.0
17-04-2022, 00:35:13,    138,    0.0,    9.1,   0.00,   0.00, 1022.7,   64.4, -999.0
17-04-2022, 00:35:23,    138,    0.0,    9.1,   0.00,   0.00, 1022.6,   64.4, -999.0
17-04-2022, 00:35:32,    138,    0.0,    9.1,   0.00,   0.00, 1022.7,   64.5, -999.0
17-04-2022, 00:35:43,    139,    0.0,    9.1,   0.00,   0.00, 1022.7,   64.5, -999.0
17-04-2022, 00:35:52,    138,    0.0,    9.1,   0.00,   0.00, 1022.7,   64.6, -999.0
17-04-2022, 00:36:02,    138,    0.0,    9.1,   0.00,   0.00, 1022.7,   64.4, -999.0
17-04-2022, 00:36:13,    138,    0.0,    9.1,   0.00,   0.00, 1022.7,   64.5, -999.0
17-04-2022, 00:36:22,    138,    0.0,    9.1,   0.00,   0.00, 1022.7,   64.6, -999.0
17-04-2022, 00:36:32,    138,    0.0,    9.0,   0.00,   0.00, 1022.7,   64.6, -999.0
17-04-2022, 00:36:42,    139,    0.0,    9.0,   0.00,   0.00, 1022.7,   64.6, -999.0
17-04-2022, 00:36:52,    138,    0.0,    9.1,   0.00,   0.00, 1022.7,   64.6, -999.0
17-04-2022, 00:37:02,    138,    0.0,    8.9,   0.00,   0.00, 1022.7,   64.6, -999.0
17-04-2022, 00:37:12,    138,    0.0,    8.9,   0.00,   0.00, 1022.7,   64.7, -999.0
17-04-2022, 00:37:22,    138,    0.0,    9.0,   0.00,   0.00, 1022.7,   64.7, -999.0
17-04-2022, 00:37:32,    138,    0.0,    9.0,   0.00,   0.00, 1022.7,   64.7, -999.0
17-04-2022, 00:37:42,    138,    0.0,    9.1,   0.00,   0.00, 1022.7,   64.9, -999.0
17-04-2022, 00:37:52,    139,    0.0,    9.1,   0.00,   0.00, 1022.7,   64.9, -999.0
17-04-2022, 00:38:02,    138,    0.0,    9.1,   0.00,   0.00, 1022.7,   64.9, -999.0
17-04-2022, 00:38:12,    138,    0.0,    9.0,   0.00,   0.00, 1022.6,   64.9, -999.0
17-04-2022, 00:38:22,    138,    0.0,    9.0,   0.00,   0.00, 1022.7,   64.8, -999.0
17-04-2022, 00:38:31,    137,    0.0,    9.0,   0.00,   0.00, 1022.6,   64.8, -999.0
17-04-2022, 00:38:42,    138,    0.0,    9.1,   0.00,   0.00, 1022.6,   64.7, -999.0
17-04-2022, 00:38:52,    138,    0.0,    9.0,   0.00,   0.00, 1022.6,   64.7, -999.0
17-04-2022, 00:39:01,    138,    0.0,    9.0,   0.00,   0.00, 1022.6,   64.8, -999.0
17-04-2022, 00:39:11,    138,    0.0,    9.0,   0.00,   0.00, 1022.6,   64.9, -999.0
17-04-2022, 00:39:22,    138,    0.0,    9.0,   0.00,   0.00, 1022.7,   64.8, -999.0
17-04-2022, 00:39:31,    138,    0.0,    8.9,   0.00,   0.00, 1022.6,   64.9, -999.0
17-04-2022, 00:39:41,    138,    0.0,    9.0,   0.00,   0.00, 1022.7,   64.9, -999.0
17-04-2022, 00:39:51,    138,    0.0,    9.0,   0.00,   0.00, 1022.6,   64.9, -999.0
17-04-2022, 00:40:01,    138,    0.0,    9.0,   0.00,   0.00, 1022.6,   64.9, -999.0
17-04-2022, 00:40:11,    138,    0.0,    9.0,   0.00,   0.00, 1022.6,   64.9, -999.0
17-04-2022, 00:40:21,    138,    0.0,    8.9,   0.00,   0.00, 1022.6,   64.9, -999.0
17-04-2022, 00:40:31,    139,    0.0,    8.9,   0.00,   0.00, 1022.6,   64.8, -999.0
17-04-2022, 00:40:41,    138,    0.0,    8.9,   0.00,   0.00, 1022.6,   64.9, -999.0
17-04-2022, 00:40:51,    138,    0.0,    8.9,   0.00,   0.00, 1022.6,   64.8, -999.0
17-04-2022, 00:41:01,    138,    0.0,    8.8,   0.00,   0.00, 1022.6,   64.8, -999.0
17-04-2022, 00:41:11,    138,    0.0,    8.8,   0.00,   0.00, 1022.6,   65.1, -999.0
17-04-2022, 00:41:21,    138,    0.0,    8.8,   0.00,   0.00, 1022.6,   65.1, -999.0
17-04-2022, 00:41:31,    138,    0.0,    8.7,   0.00,   0.00, 1022.6,   65.1, -999.0
17-04-2022, 00:41:40,    138,    0.0,    8.8,   0.00,   0.00, 1022.6,   65.2, -999.0
17-04-2022, 00:41:51,    138,    0.0,    8.9,   0.00,   0.00, 1022.6,   65.2, -999.0
17-04-2022, 00:42:01,    138,    0.0,    9.0,   0.00,   0.00, 1022.6,   65.3, -999.0
17-04-2022, 00:42:10,    138,    0.0,    8.9,   0.00,   0.00, 1022.6,   65.3, -999.0
17-04-2022, 00:42:20,    138,    0.0,    8.9,   0.00,   0.00, 1022.6,   65.2, -999.0
17-04-2022, 00:42:31,    138,    0.0,    8.9,   0.00,   0.00, 1022.6,   65.3, -999.0
17-04-2022, 00:42:40,    137,    0.0,    8.9,   0.00,   0.00, 1022.6,   65.2, -999.0
17-04-2022, 00:42:50,    138,    0.0,    8.8,   0.00,   0.00, 1022.6,   65.3, -999.0
17-04-2022, 00:43:00,    138,    0.0,    8.8,   0.00,   0.00, 1022.6,   65.2, -999.0
17-04-2022, 00:43:10,    138,    0.0,    8.8,   0.00,   0.00, 1022.6,   65.2, -999.0
17-04-2022, 00:43:20,    137,    0.0,    8.7,   0.00,   0.00, 1022.6,   65.3, -999.0
17-04-2022, 00:43:30,    138,    0.0,    8.8,   0.00,   0.00, 1022.6,   65.3, -999.0
17-04-2022, 00:43:40,    138,    0.0,    8.9,   0.00,   0.00, 1022.6,   65.3, -999.0
17-04-2022, 00:43:50,    137,    0.0,    8.9,   0.00,   0.00, 1022.6,   65.3, -999.0
17-04-2022, 00:44:00,    138,    0.0,    8.9,   0.00,   0.00, 1022.6,   65.3, -999.0
17-04-2022, 00:44:10,    138,    0.0,    8.8,   0.00,   0.00, 1022.6,   65.3, -999.0
17-04-2022, 00:44:20,    138,    0.0,    8.9,   0.00,   0.00, 1022.6,   65.1, -999.0
17-04-2022, 00:44:30,    138,    0.0,    8.9,   0.00,   0.00, 1022.6,   65.2, -999.0
17-04-2022, 00:44:40,    138,    0.0,    8.8,   0.00,   0.00, 1022.6,   65.2, -999.0
17-04-2022, 00:44:49,    138,    0.0,    8.7,   0.00,   0.00, 1022.6,   65.1, -999.0
17-04-2022, 00:45:02,    138,    0.0,    8.8,   0.00,   0.00, 1022.6,   65.3, -999.0
17-04-2022, 00:45:10,    138,    0.0,    8.7,   0.00,   0.00, 1022.6,   65.3, -999.0
17-04-2022, 00:45:19,    138,    0.0,    8.8,   0.00,   0.00, 1022.6,   65.5, -999.0
17-04-2022, 00:45:30,    138,    0.0,    8.9,   0.00,   0.00, 1022.5,   65.4, -999.0
17-04-2022, 00:45:39,    137,    0.0,    8.9,   0.00,   0.00, 1022.6,   65.5, -999.0
17-04-2022, 00:45:49,    137,    0.0,    8.9,   0.00,   0.00, 1022.6,   65.3, -999.0
17-04-2022, 00:45:59,    137,    0.0,    8.9,   0.00,   0.00, 1022.6,   65.3, -999.0
17-04-2022, 00:46:09,    137,    0.0,    9.0,   0.00,   0.00, 1022.5,   65.4, -999.0
17-04-2022, 00:46:19,    137,    0.0,    9.0,   0.00,   0.00, 1022.6,   65.4, -999.0
17-04-2022, 00:46:29,    137,    0.0,    9.1,   0.00,   0.00, 1022.6,   65.3, -999.0
17-04-2022, 00:46:39,    137,    0.0,    9.0,   0.00,   0.00, 1022.6,   65.3, -999.0